Location: Edisto_Beach
(32.4790°N, 80.3350°W)
Time: 05:52:11
(UTC-04:00)

Amateur Radio Satellites - All Passes

Search period start: 24 May 2016 05:22
Search period end: 25 May 2016 05:22
Location: Edisto_Beach, 32.4790°N, 80.3350°W

Satellite Date Start Highest point End Downlink Frequencies (MHz)
Time Altitude Azimuth
Cosmos 2504 24 May 05:32:14 05:40:20 49° 80° (E) 05:48:47 435.465 / 435.565
KKS-1 24 May 05:33:04 05:35:32 15° 266° (W) 05:38:01 437.445
YUBILEINY 24 May 05:46:15 05:54:08 40° 273° (W) 06:02:04 435.215
NOAA 18 24 May 06:15:49 06:18:21 13° 93° (E) 06:20:52 137.9125
CUBESAT XI-V 24 May 06:30:10 06:34:40 51° 260° (W) 06:39:14 437.345
Cosmos 2491 24 May 06:34:06 06:41:42 32° 285° (WNW) 06:49:22 435.465 / 435.565
ISS 24 May 06:37:03 06:40:16 55° 43° (NE) 06:43:28 145.825
AO-7 24 May 06:47:16 06:53:45 26° 300° (WNW) 07:00:16 29.400- 29.500
Cubesat XI-IV 24 May 06:49:12 06:53:30 24° 96° (E) 06:57:47 437.490
HORYU 2 24 May 06:53:42 06:57:25 27° 289° (WNW) 07:01:08 437.375
PHONESAT 2.4 24 May 06:56:43 06:58:56 18° 217° (SW) 07:01:08 2401.200-2431.200
LilacSat-2 24 May 06:58:12 07:01:16 23° 97° (E) 07:04:19 437.200
NOAA 15 24 May 06:58:36 07:03:42 46° 100° (E) 07:08:44 137.62
AO-85 24 May 07:07:05 07:12:25 60° 115° (ESE) 07:17:45 145.980
BRITE-PL 24 May 07:08:56 07:13:51 45° 98° (E) 07:18:22 437.365/2234.400
Cosmos 2504 24 May 07:26:16 07:33:18 30° 274° (W) 07:40:37 435.465 / 435.565
JUGNU 24 May 07:27:34 07:30:45 15° 165° (SSE) 07:33:56 437.505
DOVE 4 24 May 07:28:36 07:29:46 11° 91° (E) 07:30:55 437.250
CUTE-I 24 May 07:35:58 07:41:19 75° 103° (ESE) 07:46:41 437.470
STRAND 1 24 May 07:47:49 07:52:53 75° 76° (ENE) 07:57:59 437.568
NOAA 18 24 May 07:53:55 07:59:19 62° 286° (WNW) 08:04:43 137.9125
GOMX 1 24 May 07:54:21 07:59:02 61° 100° (E) 08:03:21 467.674
PRISM 24 May 08:20:21 08:23:41 24° 71° (ENE) 08:27:03 437.425
CUTE 1.7 + AOD 2 24 May 08:25:31 08:27:44 14° 94° (E) 08:29:58 437.475
CINEMA 3 24 May 08:27:20 08:29:39 15° 94° (E) 08:31:57 145.822/145.860
Cubesat XI-IV 24 May 08:28:46 08:33:32 34° 290° (WNW) 08:38:18 437.490
LilacSat-2 24 May 08:32:53 08:35:21 17° 289° (WNW) 08:37:50 437.200
HO-68 24 May 08:34:41 08:40:42 29° 97° (E) 08:46:42 435.675
NOAA 15 24 May 08:39:33 08:43:03 18° 294° (WNW) 08:46:32 137.62
BRITE-PL 24 May 08:48:40 08:51:48 16° 294° (WNW) 08:54:48 437.365/2234.400
AO-85 24 May 08:49:33 08:53:17 18° 310° (NW) 08:56:58 145.980
AIST 1 24 May 08:49:58 08:53:10 20° 76° (ENE) 08:56:21
COMPASS 1 24 May 09:01:13 09:04:11 18° 95° (E) 09:07:08 437.405
DOVE 4 24 May 09:03:33 09:07:45 45° 286° (WNW) 09:11:46 437.250
AAUSAT CUBESAT 2 24 May 09:07:51 09:10:40 17° 95° (E) 09:13:28 437.432
AUBIESAT-1 24 May 09:10:04 09:13:19 54° 105° (ESE) 09:16:34 437.475
M-CUBED/EXP-1 PRIME 24 May 09:13:12 09:16:28 84° 104° (ESE) 09:19:44 437.505
SRMSAT 24 May 09:14:18 09:16:32 12° 163° (SSE) 09:18:45 437.500
JUGNU 24 May 09:14:35 09:19:09 23° 175° (S) 09:23:41 437.505
CUTE-I 24 May 09:18:58 09:20:40 12° 297° (WNW) 09:22:23 437.470
CANX-2 24 May 09:31:25 09:35:41 73° 283° (WNW) 09:39:57 2200.000
GOMX 1 24 May 09:35:52 09:36:23 10° 296° (WNW) 09:36:56 467.674
GONETS M04 24 May 09:38:49 09:47:00 43° 78° (ENE) 09:55:07
PCSat 24 May 09:39:01 09:41:21 13° 103° (ESE) 09:43:40 145.827
SEEDS 24 May 09:42:07 09:46:23 89° 288° (WNW) 09:50:38 437.485
CUBEBUG 2 24 May 09:42:13 09:46:01 34° 98° (E) 09:49:51 437.445
UNISAT 6 24 May 09:47:38 09:47:59 10° 66° (ENE) 09:48:19 437.425
Oscar 11 24 May 09:48:18 09:51:34 20° 96° (E) 09:54:48 145.826/435.025
ZACube-1 24 May 09:54:40 09:57:50 21° 96° (E) 10:01:01 437.345
TIGRISAT 24 May 09:55:07 09:56:51 12° 67° (ENE) 09:58:35 435.000
PRISM 24 May 09:55:51 09:58:54 20° 264° (W) 10:01:59 437.425
CUTE 1.7 + AOD 2 24 May 09:59:43 10:03:40 37° 286° (WNW) 10:07:36 437.475
CINEMA 3 24 May 10:03:10 10:06:52 32° 287° (WNW) 10:10:32 145.822/145.860
DELFI C3 24 May 10:10:43 10:13:11 16° 94° (E) 10:15:39 145.870
Cosmos 2499 24 May 10:18:33 10:26:49 48° 79° (E) 10:35:17 435.465 / 435.565
UWE-3 24 May 10:18:53 10:23:02 68° 101° (ESE) 10:27:13 435.000/436.395/437.385
SO-50 24 May 10:19:15 10:22:33 19° 51° (NE) 10:25:45 436.795
HO-68 24 May 10:21:45 10:28:28 45° 291° (WNW) 10:35:11 435.675
ANTELSAT 24 May 10:25:13 10:29:03 30° 73° (ENE) 10:32:50 437.575/2403.000
AIST 1 24 May 10:27:08 10:30:41 25° 271° (W) 10:34:11
FUNcube-1 24 May 10:34:06 10:38:15 62° 101° (E) 10:42:26 145.935
COMPASS 1 24 May 10:36:08 10:39:41 27° 288° (WNW) 10:43:15 437.405
HUMSAT D 24 May 10:37:44 10:40:01 14° 94° (E) 10:42:17 437.325/437.525
O/OREOS (USA 219) 24 May 10:41:25 10:45:59 78° 108° (ESE) 10:50:32 437.305
AAUSAT CUBESAT 2 24 May 10:42:31 10:46:07 29° 288° (WNW) 10:49:44 437.432
SRMSAT 24 May 11:00:43 11:05:03 21° 172° (S) 11:09:23 437.500
JUGNU 24 May 11:03:01 11:07:36 23° 185° (S) 11:12:09 437.505
PCSat 24 May 11:18:45 11:24:06 64° 297° (WNW) 11:29:30 145.827
DUCHIFAT 1 24 May 11:18:54 11:21:45 18° 69° (ENE) 11:24:37 145.980
UNISAT 6 24 May 11:19:49 11:24:11 57° 259° (W) 11:28:30 437.425
CUBEBUG 2 24 May 11:20:03 11:22:20 15° 291° (WNW) 11:24:37 437.445
Oscar 11 24 May 11:24:00 11:27:37 26° 288° (WNW) 11:31:13 145.826/435.025
TIGRISAT 24 May 11:28:50 11:33:07 47° 260° (W) 11:37:20 435.000
ZACube-1 24 May 11:30:39 11:34:01 24° 288° (WNW) 11:37:25 437.345
GONETS M04 24 May 11:36:01 11:43:28 33° 274° (W) 11:50:55
DELFI C3 24 May 11:44:33 11:48:03 29° 287° (WNW) 11:51:32 145.870
POPSAT HIP 1 24 May 11:51:08 11:55:14 49° 75° (ENE) 11:59:21 437.405
QB50P1 24 May 11:51:53 11:56:01 51° 75° (ENE) 12:00:09 145.935-145.965
QB50P2 24 May 11:52:46 11:56:56 56° 75° (ENE) 12:01:05 145.880/145.840
BUGSAT 1 24 May 11:52:51 11:55:59 21° 70° (ENE) 11:59:07 437.445
JAS-2 24 May 11:52:55 11:56:26 14° 58° (ENE) 12:00:02 435.910
POLYITAN 1 24 May 11:55:11 11:59:22 58° 75° (ENE) 12:03:32 437.675
CUSAT 1 24 May 11:56:37 12:01:07 25° 84° (E) 12:06:29 437.405
SO-50 24 May 11:58:51 12:03:10 40° 247° (WSW) 12:07:20 436.795
ANTELSAT 24 May 12:02:39 12:05:44 18° 264° (W) 12:08:47 437.575/2403.000
AISAT 24 May 12:05:07 12:08:10 18° 95° (E) 12:11:10 437.250
BEESAT 2 24 May 12:07:22 12:09:14 13° 108° (ESE) 12:11:06 435.950
HUMSAT D 24 May 12:11:56 12:15:41 34° 287° (WNW) 12:19:28 437.325/437.525
Cosmos 2499 24 May 12:12:15 12:19:32 32° 274° (W) 12:27:00 435.465 / 435.565
NANOSAT C BR1 24 May 12:12:25 12:16:39 90° 53° (NE) 12:20:54 145.865
ESTCUBE 1 24 May 12:26:34 12:30:59 50° 100° (E) 12:35:22 437.505/2401.250
UKube-1 24 May 12:33:30 12:37:02 24° 97° (E) 12:40:32 .
BEESAT 3 24 May 12:47:18 12:51:13 84° 117° (ESE) 12:55:10 437.485
SRMSAT 24 May 12:49:01 12:53:38 23° 182° (S) 12:58:14 437.500
JUGNU 24 May 12:52:42 12:55:58 15° 195° (SSW) 12:59:14 437.505
DUCHIFAT 1 24 May 12:53:31 12:57:12 29° 262° (W) 13:00:54 145.980
DANDE 24 May 12:58:02 13:02:14 35° 88° (E) 13:07:42 436.750
VELOX 1 24 May 13:04:41 13:09:08 87° 282° (WNW) 13:13:32 145.980
CUBEBUG 1 24 May 13:07:52 13:12:15 76° 284° (WNW) 13:16:35 437.445
DX 1 24 May 13:12:25 13:16:47 85° 286° (WNW) 13:21:08 434.975-435.025
50 SAT 24 May 13:19:55 13:23:22 37° 286° (WNW) 13:26:50 437.505
BUGSAT 1 24 May 13:27:40 13:31:10 25° 263° (W) 13:34:41 437.445
POPSAT HIP 1 24 May 13:30:48 13:31:13 10° 267° (W) 13:31:38 437.405
JAS-2 24 May 13:33:09 13:40:07 84° 74° (ENE) 13:47:51 435.910
CUSAT 1 24 May 13:37:26 13:42:41 41° 286° (WNW) 13:49:19 437.405
AISAT 24 May 13:40:45 13:44:37 30° 289° (WNW) 13:48:27 437.250
BEESAT 2 24 May 13:43:00 13:46:42 37° 302° (WNW) 13:50:25 435.950
Gurwin Techsat 1B 24 May 13:46:10 13:50:05 21° 68° (ENE) 13:54:00 435.225
Oscar 19 24 May 13:51:57 13:57:04 63° 74° (ENE) 14:02:13 437.125/150
SPROUT 24 May 13:52:08 13:56:21 61° 284° (WNW) 14:00:31 437.525
ESTCUBE 1 24 May 14:05:22 14:07:18 13° 293° (WNW) 14:09:14 437.505/2401.250
UKube-1 24 May 14:09:34 14:12:55 22° 290° (WNW) 14:16:14 .
ITAMSAT 1 24 May 14:27:03 14:30:42 20° 67° (ENE) 14:34:22 435.822/435.867
TISAT 1 24 May 14:30:05 14:34:17 88° 276° (W) 14:38:26 437.305
SRMSAT 24 May 14:38:26 14:42:11 17° 192° (SSW) 14:45:56 437.500
DANDE 24 May 14:41:32 14:45:19 21° 293° (WNW) 14:49:56 436.750
Cosmos 2491 24 May 14:54:24 14:59:43 17° 69° (ENE) 15:05:00 435.465 / 435.565
SWISSCUBE 24 May 15:02:29 15:06:54 36° 99° (E) 15:11:17 437.505
ITUPSAT 1 24 May 15:06:37 15:11:01 35° 98° (E) 15:15:23 437.325
AIST 2 24 May 15:21:38 15:25:40 57° 299° (WNW) 15:29:45 435.215
JAS-2 24 May 15:22:27 15:25:57 14° 272° (W) 15:29:38 435.910
Gurwin Techsat 1B 24 May 15:24:48 15:29:42 38° 261° (W) 15:34:39 435.225
BEESAT 24 May 15:32:22 15:37:08 71° 102° (ESE) 15:41:54 436.000
Oscar 19 24 May 15:34:52 15:36:43 12° 268° (W) 15:38:33 437.125/150
AO-85 24 May 15:45:34 15:48:07 15° 48° (NE) 15:50:34 145.980
AO-7 24 May 15:47:08 15:55:08 56° 68° (ENE) 16:03:11 29.400- 29.500
KKS-1 24 May 15:52:59 15:53:52 10° 93° (E) 15:54:45 437.445
ITAMSAT 1 24 May 16:05:01 16:09:49 40° 261° (W) 16:14:41 435.822/435.867
HORYU 2 24 May 16:13:08 16:14:38 12° 66° (ENE) 16:16:08 437.375
STARS 24 May 16:36:41 16:39:38 18° 95° (E) 16:42:34 437.465
SWISSCUBE 24 May 16:41:03 16:44:23 19° 292° (WNW) 16:47:43 437.505
YUBILEINY 24 May 16:44:20 16:52:34 50° 90° (E) 17:00:49 435.215
ITUPSAT 1 24 May 16:45:09 16:48:34 20° 292° (WNW) 16:51:58 437.325
Cosmos 2491 24 May 16:48:41 16:57:27 80° 267° (W) 17:06:08 435.465 / 435.565
MOZHAYETS 4 24 May 17:15:29 17:20:08 82° 102° (ESE) 17:24:46
RS-15 24 May 17:16:51 17:26:38 37° 105° (ESE) 17:36:49 29.354- 29.394
AO-85 24 May 17:24:37 17:28:56 48° 247° (WSW) 17:32:54 145.980
KKS-1 24 May 17:26:23 17:30:41 51° 286° (WNW) 17:34:57 437.445
NOAA 18 24 May 17:37:22 17:40:54 18° 65° (ENE) 17:44:25 137.9125
AO-7 24 May 17:41:30 17:48:09 27° 263° (W) 17:54:51 29.400- 29.500
HORYU 2 24 May 17:46:24 17:50:42 51° 260° (W) 17:55:01 437.375
Cosmos 2504 24 May 18:06:02 18:12:37 42° 89° (E) 18:19:25 435.465 / 435.565
Cubesat XI-IV 24 May 18:06:54 18:11:13 26° 69° (ENE) 18:15:33 437.490
STARS 24 May 18:12:10 18:15:59 30° 288° (WNW) 18:19:48 437.465
BRITE-PL 24 May 18:13:55 18:18:53 35° 71° (ENE) 18:23:59 437.365/2234.400
NOAA 15 24 May 18:14:02 18:19:05 47° 72° (ENE) 18:24:09 137.62
CUBESAT XI-V 24 May 18:31:10 18:35:49 56° 100° (E) 18:40:25 437.345
YUBILEINY 24 May 18:42:17 18:49:32 29° 286° (WNW) 18:56:51 435.215
Cosmos 2491 24 May 18:50:41 18:52:46 11° 283° (WNW) 18:54:51 435.465 / 435.565
CUTE-I 24 May 18:53:10 18:58:27 77° 75° (ENE) 19:03:46 437.470
GOMX 1 24 May 18:56:28 19:01:38 44° 73° (ENE) 19:06:47 467.674
HO-68 24 May 19:01:42 19:04:47 13° 58° (ENE) 19:07:51 435.675
LilacSat-2 24 May 19:08:54 19:12:42 68° 259° (W) 19:16:29 437.200
NOAA 18 24 May 19:15:49 19:21:06 50° 259° (W) 19:26:24 137.9125
CINEMA 3 24 May 19:26:38 19:27:09 10° 66° (ENE) 19:27:40 145.822/145.860
RS-15 24 May 19:27:29 19:38:27 55° 305° (NW) 19:50:05 29.354- 29.394
Cubesat XI-IV 24 May 19:46:26 19:51:06 31° 262° (W) 19:55:47 437.490
AUBIESAT-1 24 May 19:51:28 19:55:24 36° 69° (ENE) 19:59:06 437.475
BRITE-PL 24 May 19:52:44 19:57:17 26° 266° (W) 20:01:59 437.365/2234.400
M-CUBED/EXP-1 PRIME 24 May 19:54:42 19:58:58 50° 71° (ENE) 20:02:57 437.505
NOAA 15 24 May 19:55:40 19:59:01 17° 266° (W) 20:02:23 137.62
Cosmos 2504 24 May 20:00:09 20:06:04 27° 286° (WNW) 20:12:11 435.465 / 435.565
DOVE 4 24 May 20:02:42 20:08:00 84° 258° (WSW) 20:13:13 437.250
STRAND 1 24 May 20:03:12 20:07:57 37° 99° (E) 20:12:41 437.568
CUBESAT XI-V 24 May 20:10:51 20:12:39 12° 294° (WNW) 20:14:26 437.345
PCSat 24 May 20:11:24 20:16:27 38° 60° (ENE) 20:21:27 145.827
CANX-2 24 May 20:19:33 20:23:29 41° 74° (ENE) 20:27:27 2200.000
SEEDS 24 May 20:29:27 20:33:10 33° 73° (ENE) 20:36:54 437.485
GOMX 1 24 May 20:35:50 20:39:46 20° 266° (W) 20:43:43 467.674
CUBEBUG 2 24 May 20:36:38 20:39:39 18° 70° (ENE) 20:42:37 437.445
HO-68 24 May 20:44:17 20:51:26 86° 74° (ENE) 20:58:37 435.675
CUTE 1.7 + AOD 2 24 May 20:47:12 20:51:23 82° 78° (ENE) 20:55:36 437.475
O/OREOS (USA 219) 24 May 20:56:05 21:00:32 68° 69° (ENE) 21:04:58 437.305
CINEMA 3 24 May 20:58:53 21:03:44 68° 259° (W) 21:08:25 145.822/145.860
BEESAT 3 24 May 21:10:36 21:12:18 12° 51° (NE) 21:13:59 437.485
UWE-3 24 May 21:11:31 21:15:22 30° 73° (ENE) 21:19:08 435.000/436.395/437.385
AIST 1 24 May 21:15:15 21:17:43 15° 87° (E) 21:20:11
COMPASS 1 24 May 21:21:26 21:25:32 76° 257° (WSW) 21:29:41 437.405
FUNcube-1 24 May 21:25:31 21:29:06 26° 72° (ENE) 21:32:37 145.935
AAUSAT CUBESAT 2 24 May 21:27:21 21:31:27 83° 259° (WSW) 21:35:35 437.432
AUBIESAT-1 24 May 21:27:22 21:29:51 15° 259° (W) 21:32:16 437.475
M-CUBED/EXP-1 PRIME 24 May 21:32:17 21:33:33 11° 261° (W) 21:34:49 437.505
ISS 24 May 21:38:12 21:40:12 15° 127° (SE) 21:42:11 145.825
PRISM 24 May 21:40:40 21:44:51 77° 103° (ESE) 21:48:59 437.425
STRAND 1 24 May 21:43:02 21:46:50 21° 292° (WNW) 21:50:37 437.568
RS-15 24 May 21:47:54 21:54:29 16° 333° (NNW) 22:01:16 29.354- 29.394
PCSat 24 May 21:55:23 21:59:32 23° 254° (WSW) 22:03:41 145.827
CANX-2 24 May 21:57:57 21:59:30 12° 267° (W) 22:01:03 2200.000
BEESAT 2 24 May 22:05:20 22:08:47 27° 56° (ENE) 22:12:12 435.950
SEEDS 24 May 22:06:33 22:08:54 15° 266° (W) 22:11:17 437.485
CUBEBUG 2 24 May 22:12:02 22:16:02 31° 262° (W) 22:19:56 437.445
Oscar 11 24 May 22:13:15 22:17:29 61° 259° (W) 22:21:45 145.826/435.025
ZACube-1 24 May 22:20:57 22:25:11 56° 260° (W) 22:29:21 437.345
DELFI C3 24 May 22:25:11 22:29:08 81° 76° (ENE) 22:33:06 145.870
GONETS M04 24 May 22:33:27 22:42:02 59° 91° (E) 22:50:35
CUSAT 1 24 May 22:36:52 22:41:49 18° 66° (ENE) 22:46:19 437.405
HO-68 24 May 22:36:55 22:39:47 13° 268° (W) 22:42:40 435.675
BEESAT 3 24 May 22:46:26 22:50:13 46° 246° (WSW) 22:53:58 437.485
UWE-3 24 May 22:48:54 22:51:49 17° 265° (W) 22:54:41 435.000/436.395/437.385
Cosmos 2499 24 May 22:50:33 22:57:00 39° 88° (E) 23:03:48 435.465 / 435.565
AIST 1 24 May 22:50:58 22:54:56 33° 280° (W) 22:58:57
HUMSAT D 24 May 22:58:03 23:02:09 86° 77° (ENE) 23:06:14 437.325/437.525
FUNcube-1 24 May 23:02:13 23:05:17 19° 264° (W) 23:08:20 145.935
ISS 24 May 23:13:23 23:16:24 34° 320° (NW) 23:19:25 145.825
UNISAT 6 24 May 23:16:01 23:20:03 39° 99° (E) 23:24:07 437.425
ESTCUBE 1 24 May 23:21:56 23:25:40 26° 71° (ENE) 23:29:25 437.505/2401.250
TIGRISAT 24 May 23:24:38 23:28:46 46° 100° (E) 23:32:57 435.000
UKube-1 24 May 23:25:21 23:27:06 12° 66° (ENE) 23:28:51 .
PHONESAT 2.4 24 May 23:25:41 23:28:47 62° 150° (SSE) 23:31:53 2401.200-2431.200
DANDE 24 May 23:40:44 23:48:09 33° 73° (ENE) 23:54:58 436.750
POPSAT HIP 1 24 May 23:42:54 23:44:08 11° 93° (E) 23:45:22 437.405
QB50P1 24 May 23:43:25 23:44:53 12° 93° (E) 23:46:21 145.935-145.965
BEESAT 2 24 May 23:43:38 23:46:24 18° 250° (WSW) 23:49:09 435.950
QB50P2 24 May 23:44:07 23:46:02 13° 94° (E) 23:47:58 145.880/145.840
POLYITAN 1 24 May 23:46:28 23:48:28 13° 94° (E) 23:50:28 437.675
AIST 2 24 May 23:47:45 23:51:01 22° 54° (NE) 23:54:17 435.215
50 SAT 24 May 23:53:26 23:56:51 42° 75° (ENE) 00:00:18 437.505
ANTELSAT 24 May 23:57:12 00:01:26 63° 285° (WNW) 00:05:45 437.575/2403.000
VELOX 1 24 May 23:57:15 00:01:29 45° 74° (ENE) 00:05:45 145.980
CUBEBUG 1 24 May 23:58:57 00:03:12 48° 74° (ENE) 00:07:28 437.445
NANOSAT C BR1 25 May 00:02:18 00:05:22 20° 96° (E) 00:08:26 145.865
DX 1 25 May 00:03:13 00:07:22 44° 73° (ENE) 00:11:33 434.975-435.025
RS-15 25 May 00:11:51 00:15:03 11° 12° (NNE) 00:18:14 29.354- 29.394
CUSAT 1 25 May 00:17:07 00:24:51 74° 266° (W) 00:31:14 437.405
SO-50 25 May 00:29:21 00:32:29 17° 108° (ESE) 00:35:36 436.795
GONETS M04 25 May 00:32:21 00:39:14 25° 288° (WNW) 00:46:08
AISAT 25 May 00:32:42 00:37:07 63° 259° (WSW) 00:41:34 437.250
SPROUT 25 May 00:40:49 00:44:59 53° 75° (ENE) 00:49:11 437.525
DUCHIFAT 1 25 May 00:41:35 00:45:42 59° 100° (E) 00:49:48 145.980
Cosmos 2499 25 May 00:44:02 00:50:07 30° 286° (WNW) 00:56:30 435.465 / 435.565
JAS-2 25 May 00:51:05 00:55:16 16° 89° (E) 00:59:14 435.910
UNISAT 6 25 May 00:54:10 00:56:25 14° 292° (WNW) 00:58:41 437.425
UKube-1 25 May 00:58:31 01:02:41 46° 260° (W) 01:06:52 .
ESTCUBE 1 25 May 00:58:53 01:02:22 22° 264° (W) 01:05:54 437.505/2401.250
PHONESAT 2.4 25 May 01:02:58 01:05:41 26° 345° (NNW) 01:08:25 2401.200-2431.200
TIGRISAT 25 May 01:03:28 01:05:02 12° 293° (WNW) 01:06:36 435.000
BUGSAT 1 25 May 01:13:18 01:17:19 63° 101° (E) 01:21:17 437.445
POPSAT HIP 1 25 May 01:16:07 01:20:05 43° 286° (WNW) 01:24:04 437.405
QB50P1 25 May 01:16:51 01:20:49 42° 286° (WNW) 01:24:45 145.935-145.965
TISAT 1 25 May 01:17:11 01:21:02 35° 73° (ENE) 01:24:55 437.305
QB50P2 25 May 01:18:03 01:21:57 38° 286° (WNW) 01:25:50 145.880/145.840
POLYITAN 1 25 May 01:20:30 01:24:22 37° 287° (WNW) 01:28:14 437.675
DANDE 25 May 01:23:11 01:31:08 48° 270° (W) 01:38:19 436.750
AIST 2 25 May 01:26:00 01:29:25 25° 249° (WSW) 01:32:51 435.215
VELOX 1 25 May 01:36:13 01:38:07 13° 267° (W) 01:40:02 145.980
NANOSAT C BR1 25 May 01:37:35 01:41:01 25° 289° (WNW) 01:44:27 145.865
CUBEBUG 1 25 May 01:38:09 01:39:40 12° 267° (W) 01:41:12 437.445
DX 1 25 May 01:41:55 01:43:43 12° 266° (W) 01:45:31 434.975-435.025
SWISSCUBE 25 May 02:04:53 02:08:43 25° 70° (ENE) 02:12:34 437.505
SO-50 25 May 02:07:53 02:12:34 45° 302° (WNW) 02:17:17 436.795
Gurwin Techsat 1B 25 May 02:08:36 02:10:13 11° 92° (E) 02:11:50 435.225
Oscar 19 25 May 02:08:36 02:13:11 32° 98° (E) 02:17:43 437.125/150
ITUPSAT 1 25 May 02:09:21 02:13:09 25° 70° (ENE) 02:16:58 437.325
RS-15 25 May 02:22:43 02:33:24 33° 45° (NE) 02:44:00 29.354- 29.394
JAS-2 25 May 02:33:34 02:41:01 73° 287° (WNW) 02:47:38 435.910
BEESAT 25 May 02:34:10 02:38:42 47° 74° (ENE) 02:43:16 436.000
PHONESAT 2.4 25 May 02:40:46 02:43:02 18° 2° (N) 02:45:18 2401.200-2431.200
TISAT 1 25 May 02:54:28 02:56:45 14° 266° (W) 02:59:04 437.305
YUBILEINY 25 May 03:01:38 03:07:21 19° 70° (ENE) 03:13:02 435.215
SWISSCUBE 25 May 03:42:25 03:46:22 26° 263° (W) 03:50:20 437.505
Gurwin Techsat 1B 25 May 03:45:15 03:50:32 67° 285° (WNW) 03:55:47 435.225
ITUPSAT 1 25 May 03:46:50 03:50:50 27° 263° (W) 03:54:51 437.325
Oscar 19 25 May 03:48:12 03:52:17 24° 291° (WNW) 03:56:21 437.125/150
Cosmos 2491 25 May 03:49:41 03:56:14 24° 83° (E) 04:02:44 435.465 / 435.565
AO-7 25 May 03:55:01 04:01:23 24° 96° (E) 04:07:42 29.400- 29.500
Cosmos 2504 25 May 04:06:05 04:08:49 12° 67° (ENE) 04:11:34 435.465 / 435.565
MOZHAYETS 4 25 May 04:12:46 04:17:04 43° 74° (ENE) 04:21:23
BEESAT 25 May 04:14:22 04:16:40 13° 266° (W) 04:18:59 436.000
PHONESAT 2.4 25 May 04:17:25 04:20:19 34° 18° (NNE) 04:23:12 2401.200-2431.200
KKS-1 25 May 04:19:20 04:23:48 79° 77° (ENE) 04:28:17 437.445
ITAMSAT 1 25 May 04:22:02 04:27:15 78° 285° (WNW) 04:32:28 435.822/435.867
JAS-2 25 May 04:22:38 04:24:31 11° 304° (NW) 04:26:22 435.910
RS-15 25 May 04:34:40 04:46:57 74° 247° (WSW) 04:59:02 29.354- 29.394
YUBILEINY 25 May 04:56:10 05:04:55 76° 267° (W) 05:13:40 435.215
STARS 25 May 05:03:25 05:07:48 64° 259° (WSW) 05:12:12 437.465
